[[{"header":{"parameterUnit":"m.s-1","parameterCategory":2,"la1":30.2991,"la2":30.254,"lo1":-89.0895,"lo2":-89.0444,"dy":0.0017,"dx":0.0017,"nx":28,"ny":28,"refTime":"2025-08-17T03:00:00:Z","depth":"0","parameterNumber":2,"parameterNumberName":"U-component_of_CURRENTS"},"data":[0,0,0,0,0,0,0,0,0,0,0,0,0,0,0,0,0,0,0,0,0,0,0,0,0,0,0,0,0,0,0,0,0,0,0,0,0,0,0,0,0,0,0,0,0,0,0,0,0,0,0,0,0,0,0,0,0,0,-0.3377,-0.3377,0,-0.3349,-0.3348,-0.3348,-0.326,-0.3258,-0.3256,-0.3254,-0.3197,-0.3197,-0.3198,0,0,0,0,0,0,0,0,0,0,0,0,0,-0.3193,-0.3198,-0.3377,-0.3377,-0.3376,-0.3349,-0.3348,-0.3348,-0.326,-0.3258,-0.3256,-0.3254,-0.3197,-0.3197,-0.3198,0,0,0,0,0,0,0,0,0,0,0,0,0,-0.3229,-0.3199,-0.3377,-0.333,-0.3326,-0.3349,-0.3348,-0.3347,-0.3261,-0.3258,-0.3255,-0.3253,-0.3197,-0.3197,-0.3198,-0.3255,0,0,-0.3199,-0.3199,0,0,0,0,0,0,0,0,-0.3227,-0.3236,-0.3337,-0.3333,-0.3329,-0.3306,-0.3262,-0.3316,-0.3261,-0.3284,-0.3254,-0.3251,-0.3234,-0.3231,-0.3231,-0.3252,-0.325,-0.3199,-0.3199,-0.3199,-0.3199,0,0,0,0,0,0,0,-0.3225,-0.3236,-0.3365,-0.3337,-0.3332,-0.3255,-0.3258,-0.3271,-0.3274,-0.3282,-0.3276,-0.3275,-0.323,-0.3231,-0.3228,-0.3249,-0.3199,-0.3199,-0.3199,-0.3199,-0.3256,-0.3257,0,0,0,0,0,0,-0.3244,-0.3235,-0.3365,-0.3364,-0.3271,-0.3261,-0.3265,-0.3315,-0.3274,-0.3265,-0.3278,-0.3271,-0.3231,-0.3228,-0.3226,-0.3234,-0.3199,-0.3199,-0.3199,-0.3255,-0.3256,-0.3258,0,0,0,0,0,0,-0.3241,-0.3258,-0.3367,-0.3295,-0.3304,-0.3269,-0.3325,-0.3316,-0.33,-0.3271,-0.3261,-0.3268,-0.3229,-0.3226,-0.3227,-0.3233,-0.3199,-0.32,-0.3253,-0.3255,-0.3257,-0.3287,0,0,0,0,0,0,-0.3237,-0.3259,-0.3293,-0.3299,-0.3309,-0.3381,-0.3327,-0.3317,-0.3305,-0.3296,-0.3261,-0.3253,-0.3227,-0.3227,-0.3227,-0.3233,-0.32,-0.3251,-0.3254,-0.3256,-0.3284,-0.3289,-0.3294,0,0,0,0,0,-0.3231,-0.3288,-0.3297,-0.331,-0.3363,-0.3382,-0.338,-0.3341,-0.3308,-0.3314,-0.3283,-0.3253,-0.3242,-0.3229,-0.3229,-0.3234,-0.325,-0.3253,-0.3256,-0.3282,-0.3288,-0.3294,0,0,0,0,0,0,-0.3218,-0.3286,-0.3293,-0.3368,-0.3376,-0.3367,-0.3368,-0.3348,-0.3331,-0.3317,-0.3277,-0.3269,-0.3273,-0.3262,-0.3247,-0.326,-0.324,-0.3244,-0.326,-0.3266,-0.3271,-0.325,-0.32,0,0,0,0,0,-0.3241,-0.3303,-0.3338,-0.339,-0.3402,-0.3388,-0.3387,-0.3371,-0.3359,-0.3347,-0.3321,-0.33,-0.3293,-0.3283,-0.3282,-0.3296,-0.3215,-0.33,-0.3305,-0.3309,-0.3295,-0.3173,-0.3163,-0.3268,-0.3268,-0.3268,0,0,-0.3234,-0.329,-0.3314,-0.339,-0.3391,-0.341,-0.338,-0.3391,-0.3392,-0.3349,-0.3338,-0.3324,-0.3305,-0.331,-0.331,-0.3294,-0.3239,-0.3313,-0.3316,-0.3299,-0.3174,-0.3163,-0.3154,-0.327,-0.3269,-0.3269,0,0,-0.3234,-0.3321,-0.335,-0.3384,-0.3415,-0.3424,-0.343,-0.3433,-0.3421,-0.3434,-0.339,-0.3374,-0.3379,-0.3346,-0.3334,-0.3373,-0.3275,-0.3382,-0.338,-0.3262,-0.3251,-0.324,-0.3117,-0.3095,-0.3376,-0.3376,-0.3376,0,-0.3206,-0.3272,-0.3351,-0.3391,-0.3391,-0.3432,-0.3424,-0.3457,-0.3451,-0.3426,-0.3436,-0.339,-0.3391,-0.3348,-0.337,-0.338,-0.3288,-0.3354,-0.3262,-0.325,-0.3238,-0.3115,-0.309,-0.3378,-0.3378,-0.3377,-0.3377,0,-0.3222,-0.3268,-0.329,-0.336,-0.339,-0.3397,-0.3452,-0.3474,-0.3475,-0.3468,-0.3439,-0.3436,-0.3385,-0.3405,-0.3409,-0.3334,-0.3287,-0.3283,-0.3235,-0.3228,-0.31,-0.3074,-0.338,-0.338,-0.3379,-0.3379,0,0,-0.3119,-0.326,-0.3257,-0.3257,-0.336,-0.3365,-0.3425,-0.3429,-0.3397,-0.3445,-0.3365,-0.3412,-0.3385,-0.3371,-0.3359,-0.3289,-0.3157,-0.3259,-0.3252,-0.3114,-0.2866,-0.2775,-0.2737,-0.3118,-0.3114,-0.311,-0.2806,0,-0.3057,-0.3102,-0.3198,-0.3194,-0.3193,-0.3284,-0.3313,-0.3349,-0.3363,-0.3325,-0.3345,-0.3292,-0.3381,-0.3328,-0.3287,-0.3196,-0.3088,-0.3238,-0.2913,-0.2903,-0.2803,-0.2704,-0.2624,-0.2341,-0.278,-0.2775,-0.2772,0,-0.2988,-0.303,-0.3024,-0.3065,-0.3069,-0.3095,-0.3094,-0.3129,-0.3158,-0.3159,-0.3153,-0.3158,-0.3125,-0.3166,-0.301,-0.3094,-0.2977,-0.2904,-0.289,-0.2771,-0.2761,-0.2422,-0.2275,-0.2281,-0.273,-0.2733,-0.2736,0,-0.2805,-0.2873,-0.2851,-0.2879,-0.297,-0.2965,-0.3001,-0.3048,-0.3053,-0.3032,-0.3011,-0.298,-0.294,-0.284,-0.2793,-0.286,-0.2562,-0.2622,-0.2411,-0.2403,-0.2254,-0.224,-0.2051,-0.2418,-0.2419,-0.2419,-0.242,0,-0.2671,-0.2633,-0.2765,-0.2755,-0.2705,-0.2819,-0.2766,-0.2808,-0.2844,-0.2822,-0.2899,-0.2847,-0.2851,-0.274,-0.2681,-0.2467,-0.2464,-0.2362,-0.2299,-0.2266,-0.2256,-0.2193,-0.2252,-0.2408,-0.241,-0.2413,-0.2415,0,-0.244,-0.2543,-0.2516,-0.2605,-0.2623,-0.2585,-0.2666,-0.2648,-0.2703,-0.2673,-0.267,-0.2704,-0.2565,-0.2522,-0.2314,-0.2292,-0.2049,-0.1999,-0.1968,-0.1908,-0.177,-0.1834,-0.1557,-0.1512,-0.1718,-0.1713,-0.1709,0,-0.2302,-0.2282,-0.2381,-0.2386,-0.2419,-0.2419,-0.2441,-0.2548,-0.2569,-0.2582,-0.2561,-0.2442,-0.2336,-0.204,-0.1933,-0.172,-0.1786,-0.1532,-0.1661,-0.1697,-0.1723,-0.1802,-0.1793,-0.1469,-0.1463,-0.1459,-0.1455,0,-0.2026,-0.2098,-0.2114,-0.2148,-0.2177,-0.2215,-0.2269,-0.2281,-0.2406,-0.2353,-0.2254,-0.2143,-0.1939,-0.1706,-0.1498,-0.1398,-0.1531,-0.1434,-0.1456,-0.1481,-0.1562,-0.1511,-0.1753,-0.1416,-0.142,-0.1423,-0.1425,-0.1427,-0.1816,-0.1784,-0.1863,-0.1873,-0.1929,-0.1994,-0.1976,-0.2034,-0.1997,-0.1895,-0.1913,-0.1632,-0.1563,-0.1264,-0.1172,-0.1059,-0.117,-0.1058,-0.1117,-0.1181,-0.1188,-0.1346,-0.0969,-0.097,-0.0971,-0.0972,-0.0973,0,-0.1565,-0.1586,-0.158,-0.1641,-0.165,-0.1763,-0.1844,-0.1795,-0.1669,-0.1533,-0.1346,-0.1068,-0.0932,-0.0899,-0.0849,-0.0792,-0.0829,-0.0791,-0.0909,-0.0904,-0.0989,-0.1035,-0.0673,-0.0673,-0.0673,-0.0673,-0.0673,-0.0673,-0.1445,-0.1382,-0.1409,-0.1354,-0.1403,-0.141,-0.1435,-0.1317,-0.1213,-0.0843,-0.0579,-0.0468,-0.0571,-0.0752,-0.0759,-0.0718,-0.0758,-0.0703,-0.0757,-0.0885,-0.0918,-0.0949,-0.1005,-0.0642,-0.0642,-0.0645,-0.0645,-0.0645]},{"header":{"parameterUnit":"m.s-1","parameterCategory":2,"la1":30.2991,"la2":30.254,"lo1":-89.0895,"lo2":-89.0444,"dy":0.0017,"dx":0.0017,"nx":28,"ny":28,"refTime":"2025-08-17T03:00:00:Z","depth":"0","parameterNumber":3,"parameterNumberName":"V-component_of_CURRENTS"},"data":[0,0,0,0,0,0,0,0,0,0,0,0,0,0,0,0,0,0,0,0,0,0,0,0,0,0,0,0,0,0,0,0,0,0,0,0,0,0,0,0,0,0,0,0,0,0,0,0,0,0,0,0,0,0,0,0,0,0,-0.0654,-0.0653,0,-0.0574,-0.0573,-0.0572,-0.0458,-0.0456,-0.0455,-0.0453,-0.0293,-0.029,-0.0288,0,0,0,0,0,0,0,0,0,0,0,0,0,-0.0674,-0.0674,-0.0654,-0.0653,-0.0653,-0.0575,-0.0573,-0.0571,-0.0458,-0.0456,-0.0454,-0.0452,-0.0294,-0.0291,-0.0287,0,0,0,0,0,0,0,0,0,0,0,0,0,-0.0633,-0.0674,-0.0654,-0.059,-0.0584,-0.0575,-0.0573,-0.0571,-0.0458,-0.0456,-0.0454,-0.0452,-0.0295,-0.0291,-0.0287,-0.0307,0,0,-0.0274,-0.0272,0,0,0,0,0,0,0,0,-0.0635,-0.0632,-0.06,-0.0594,-0.0587,-0.0528,-0.0522,-0.048,-0.0459,-0.0501,-0.0453,-0.045,-0.0369,-0.0358,-0.0343,-0.03,-0.0293,-0.0274,-0.0271,-0.0269,-0.0268,0,0,0,0,0,0,0,-0.0638,-0.0634,-0.0617,-0.06,-0.0592,-0.0554,-0.0546,-0.0513,-0.0444,-0.0497,-0.049,-0.0489,-0.0364,-0.0348,-0.0338,-0.029,-0.0274,-0.027,-0.0267,-0.0266,-0.0273,-0.0275,0,0,0,0,0,0,-0.0662,-0.0638,-0.062,-0.0616,-0.0611,-0.0556,-0.0546,-0.0545,-0.0446,-0.043,-0.0491,-0.0484,-0.0356,-0.0344,-0.0332,-0.0334,-0.0269,-0.0265,-0.0263,-0.027,-0.0273,-0.0276,0,0,0,0,0,0,-0.0663,-0.0661,-0.0623,-0.0628,-0.0621,-0.0559,-0.0558,-0.0545,-0.0526,-0.0443,-0.0424,-0.0486,-0.0354,-0.0338,-0.0319,-0.0327,-0.0263,-0.026,-0.0267,-0.0271,-0.0275,-0.0348,0,0,0,0,0,0,-0.0664,-0.0662,-0.0665,-0.063,-0.0622,-0.0635,-0.0561,-0.0545,-0.0531,-0.0521,-0.0433,-0.0415,-0.0351,-0.0326,-0.0315,-0.032,-0.0256,-0.0263,-0.0269,-0.0274,-0.0342,-0.0354,-0.0364,0,0,0,0,0,-0.0665,-0.0694,-0.0666,-0.0664,-0.063,-0.0638,-0.063,-0.0574,-0.0534,-0.0544,-0.0485,-0.0418,-0.035,-0.0325,-0.0311,-0.0315,-0.0261,-0.0267,-0.0273,-0.0337,-0.0352,-0.0364,0,0,0,0,0,0,-0.0708,-0.0685,-0.0653,-0.0672,-0.066,-0.062,-0.0627,-0.059,-0.0552,-0.0535,-0.0448,-0.0428,-0.0415,-0.0376,-0.0351,-0.0341,-0.0297,-0.0301,-0.0351,-0.0364,-0.0375,-0.036,-0.0253,0,0,0,0,0,-0.0722,-0.0731,-0.0705,-0.0721,-0.0721,-0.0675,-0.0668,-0.0635,-0.0601,-0.058,-0.0521,-0.0469,-0.0435,-0.0407,-0.0376,-0.0369,-0.0303,-0.0371,-0.0382,-0.0391,-0.0376,-0.0302,-0.0303,-0.0296,-0.0296,-0.0296,0,0,-0.0744,-0.0732,-0.0736,-0.073,-0.0712,-0.0717,-0.0664,-0.0671,-0.0665,-0.0572,-0.055,-0.0507,-0.0448,-0.0435,-0.0426,-0.0396,-0.0364,-0.0399,-0.0406,-0.0386,-0.0308,-0.0308,-0.0307,-0.0301,-0.03,-0.0299,0,0,-0.0797,-0.0785,-0.0805,-0.0799,-0.0786,-0.0764,-0.0773,-0.0742,-0.072,-0.0711,-0.0639,-0.0605,-0.0561,-0.0505,-0.0474,-0.0537,-0.0432,-0.054,-0.0564,-0.0494,-0.0492,-0.0489,-0.0416,-0.0406,-0.0536,-0.0536,-0.0536,0,-0.0821,-0.0831,-0.0816,-0.0828,-0.0823,-0.079,-0.0804,-0.0792,-0.0755,-0.0738,-0.072,-0.0637,-0.0588,-0.0541,-0.056,-0.0553,-0.0496,-0.0509,-0.0502,-0.0498,-0.0494,-0.0419,-0.0407,-0.054,-0.054,-0.0539,-0.0539,0,-0.0879,-0.0878,-0.09,-0.0891,-0.0891,-0.091,-0.0888,-0.0883,-0.0856,-0.0825,-0.0794,-0.0732,-0.0668,-0.0664,-0.0623,-0.058,-0.0543,-0.0526,-0.0454,-0.0498,-0.0418,-0.0404,-0.0547,-0.0545,-0.0544,-0.0543,0,0,-0.0949,-0.094,-0.0943,-0.094,-0.0921,-0.0936,-0.0934,-0.0922,-0.0906,-0.0882,-0.0844,-0.0802,-0.0753,-0.0717,-0.0661,-0.0602,-0.0533,-0.0554,-0.0549,-0.0456,-0.0366,-0.0328,-0.0308,-0.0505,-0.0503,-0.0501,-0.0323,0,-0.0991,-0.103,-0.1,-0.1025,-0.1042,-0.0998,-0.0996,-0.0976,-0.0946,-0.091,-0.085,-0.0808,-0.078,-0.0739,-0.0679,-0.0564,-0.0499,-0.0582,-0.0358,-0.0351,-0.029,-0.0292,-0.0245,-0.0081,-0.0309,-0.0306,-0.0305,0,-0.104,-0.1061,-0.1096,-0.1079,-0.1081,-0.1086,-0.1059,-0.1052,-0.0992,-0.0961,-0.0899,-0.0839,-0.075,-0.0725,-0.0542,-0.0593,-0.0486,-0.0403,-0.0394,-0.0315,-0.0287,-0.0075,-0.0046,0.0071,-0.0282,-0.0284,-0.0286,0,-0.1102,-0.1115,-0.1148,-0.1148,-0.1135,-0.1132,-0.112,-0.1071,-0.1062,-0.0984,-0.0944,-0.0841,-0.0758,-0.0636,-0.0467,-0.0495,-0.025,-0.0266,-0.013,-0.0126,-0.0019,-0.0009,0.0177,-0.0131,-0.0131,-0.0132,-0.0132,0,-0.1148,-0.1165,-0.1186,-0.1207,-0.1237,-0.1197,-0.1204,-0.1165,-0.1107,-0.105,-0.0975,-0.0876,-0.0727,-0.057,-0.0448,-0.0232,-0.0229,-0.0116,-0.0072,-0.0049,-0.0044,0.0116,0.0143,-0.0125,-0.0126,-0.0128,-0.0129,0,-0.1172,-0.1195,-0.1235,-0.1256,-0.1265,-0.1286,-0.1272,-0.1264,-0.1195,-0.1103,-0.1073,-0.0893,-0.0667,-0.0514,-0.0268,-0.0183,0.0088,0.0074,0.009,0.0132,0.0321,0.0339,0.0576,0.0664,0.0237,0.0239,0.024,0,-0.1164,-0.1196,-0.128,-0.1318,-0.1323,-0.1353,-0.136,-0.1322,-0.1279,-0.1077,-0.1012,-0.0789,-0.0568,-0.0234,-0.0054,0.0165,0.0237,0.0322,0.0262,0.036,0.0415,0.0418,0.0475,0.0377,0.038,0.0382,0.0384,0,-0.113,-0.1181,-0.1227,-0.1335,-0.1377,-0.1416,-0.1399,-0.1373,-0.1251,-0.109,-0.0801,-0.0608,-0.0314,-0.0023,0.0197,0.0316,0.0408,0.0372,0.0489,0.0556,0.0564,0.0661,0.0226,0.0404,0.0402,0.0401,0.04,0.0399,-0.1088,-0.1133,-0.1223,-0.1313,-0.1381,-0.1403,-0.1362,-0.1251,-0.1086,-0.0728,-0.06,-0.0195,0.002,0.0347,0.0457,0.0656,0.0604,0.0725,0.0748,0.0749,0.0812,0.0413,0.0619,0.0619,0.0618,0.0617,0.0617,0,-0.103,-0.1098,-0.118,-0.1293,-0.1358,-0.1404,-0.1325,-0.1181,-0.0863,-0.0512,-0.0158,0.0294,0.0546,0.0696,0.0901,0.1027,0.1041,0.1091,0.1119,0.1165,0.0847,0.0828,0.1072,0.1072,0.1072,0.1072,0.1071,0.1071,-0.1008,-0.1073,-0.1137,-0.1228,-0.1302,-0.1286,-0.1208,-0.0888,-0.059,0.003,0.0428,0.0685,0.0864,0.1125,0.1336,0.1359,0.1484,0.1464,0.1532,0.1305,0.1272,0.1241,0.1232,0.1556,0.1557,0.186,0.1863,0.1865]}],[{"header":{"parameterUnit":"m.s-1","parameterCategory":2,"la1":30.2991,"la2":30.254,"lo1":-89.0895,"lo2":-89.0444,"dy":0.0017,"dx":0.0017,"nx":28,"ny":28,"refTime":"2025-08-17T03:00:00:Z","depth":"2","parameterNumber":2,"parameterNumberName":"U-component_of_CURRENTS"},"data":[0,0,0,0,0,0,0,0,0,0,0,0,0,0,0,0,0,0,0,0,0,0,0,0,0,0,0,0,0,0,0,0,0,0,0,0,0,0,0,0,0,0,0,0,0,0,0,0,0,0,0,0,0,0,0,0,0,0,-0.1945,-0.1946,0,-0.2031,-0.2032,-0.2033,-0.2088,-0.2089,-0.2089,-0.2089,-0.2185,-0.2187,-0.2189,0,0,0,0,0,0,0,0,0,0,0,0,0,-0.1965,-0.1963,-0.1945,-0.1946,-0.1947,-0.2031,-0.2032,-0.2033,-0.2088,-0.2089,-0.2089,-0.2089,-0.2184,-0.2186,-0.2189,0,0,0,0,0,0,0,0,0,0,0,0,0,-0.1994,-0.1963,-0.1945,-0.1984,-0.1989,-0.2031,-0.2032,-0.2034,-0.2088,-0.2089,-0.2089,-0.209,-0.2183,-0.2186,-0.219,-0.2201,0,0,-0.22,-0.2201,0,0,0,0,0,0,0,0,-0.1992,-0.1993,-0.1978,-0.1982,-0.1987,-0.2049,-0.2074,-0.209,-0.2088,-0.2051,-0.2089,-0.209,-0.214,-0.2147,-0.2162,-0.2206,-0.221,-0.22,-0.2202,-0.2204,-0.2205,0,0,0,0,0,0,0,-0.199,-0.1991,-0.1979,-0.1979,-0.1984,-0.2045,-0.2048,-0.2078,-0.2092,-0.2054,-0.2058,-0.2067,-0.2142,-0.2159,-0.2165,-0.2211,-0.22,-0.2203,-0.2205,-0.2206,-0.2271,-0.2271,0,0,0,0,0,0,-0.1971,-0.1988,-0.1977,-0.1982,-0.199,-0.2043,-0.2047,-0.2029,-0.2092,-0.2101,-0.2067,-0.2069,-0.2153,-0.2161,-0.2168,-0.218,-0.2204,-0.2207,-0.2209,-0.2271,-0.2271,-0.2271,0,0,0,0,0,0,-0.197,-0.1968,-0.1973,-0.1989,-0.1994,-0.2042,-0.2021,-0.203,-0.2052,-0.2101,-0.2111,-0.2079,-0.2153,-0.2163,-0.2197,-0.2184,-0.2208,-0.2211,-0.2272,-0.2271,-0.2271,-0.2206,0,0,0,0,0,0,-0.197,-0.1966,-0.1953,-0.1986,-0.1992,-0.201,-0.2021,-0.2032,-0.2056,-0.2061,-0.2115,-0.2124,-0.2154,-0.2192,-0.22,-0.2189,-0.2214,-0.2272,-0.2272,-0.2271,-0.2209,-0.2204,-0.2199,0,0,0,0,0,-0.197,-0.1951,-0.1951,-0.1951,-0.1969,-0.2011,-0.202,-0.2057,-0.2056,-0.2075,-0.21,-0.2122,-0.2194,-0.2194,-0.2205,-0.2194,-0.2272,-0.2272,-0.2271,-0.2211,-0.2205,-0.22,0,0,0,0,0,0,-0.1951,-0.1956,-0.1957,-0.1938,-0.1976,-0.202,-0.2039,-0.2054,-0.2088,-0.2084,-0.2125,-0.2136,-0.2156,-0.2187,-0.2187,-0.2211,-0.2235,-0.2236,-0.2185,-0.218,-0.2175,-0.214,-0.2217,0,0,0,0,0,-0.1938,-0.1928,-0.1951,-0.1943,-0.1955,-0.1993,-0.2014,-0.2033,-0.2065,-0.208,-0.2117,-0.2145,-0.216,-0.218,-0.2207,-0.2228,-0.2227,-0.2226,-0.2221,-0.2217,-0.2195,-0.2181,-0.2172,-0.2269,-0.2269,-0.2269,0,0,-0.1934,-0.1932,-0.1929,-0.194,-0.1967,-0.1977,-0.2007,-0.2033,-0.2031,-0.2084,-0.21,-0.2131,-0.2161,-0.2178,-0.219,-0.2205,-0.2191,-0.2216,-0.2212,-0.2192,-0.2179,-0.217,-0.2161,-0.2268,-0.2268,-0.2268,0,0,-0.1928,-0.1912,-0.191,-0.1932,-0.1961,-0.1973,-0.1976,-0.2017,-0.2028,-0.2058,-0.207,-0.2079,-0.215,-0.2138,-0.2146,-0.2128,-0.2162,-0.2161,-0.2114,-0.2101,-0.2092,-0.2085,-0.2074,-0.2066,-0.2164,-0.2164,-0.2164,0,-0.1927,-0.1905,-0.1924,-0.1929,-0.194,-0.1963,-0.1968,-0.1975,-0.2021,-0.2029,-0.2061,-0.21,-0.2115,-0.2091,-0.2083,-0.2111,-0.2129,-0.2132,-0.2092,-0.2085,-0.2078,-0.2069,-0.2061,-0.216,-0.2161,-0.2161,-0.2161,0,-0.1916,-0.1908,-0.1912,-0.1907,-0.1927,-0.1935,-0.1944,-0.1957,-0.1974,-0.1992,-0.2002,-0.202,-0.2047,-0.2046,-0.2061,-0.2018,-0.2055,-0.2082,-0.21,-0.2063,-0.2058,-0.205,-0.2156,-0.2157,-0.2158,-0.2159,0,0,-0.1883,-0.1899,-0.1898,-0.1906,-0.191,-0.1928,-0.1912,-0.1918,-0.1925,-0.1946,-0.1957,-0.1939,-0.1963,-0.1968,-0.1977,-0.1951,-0.1904,-0.2001,-0.2002,-0.1978,-0.1894,-0.1808,-0.1793,-0.1947,-0.1945,-0.1944,-0.191,0,-0.1869,-0.1867,-0.1877,-0.188,-0.1881,-0.1898,-0.1897,-0.1904,-0.1928,-0.1948,-0.192,-0.1945,-0.1927,-0.1957,-0.1913,-0.1925,-0.1883,-0.1911,-0.1943,-0.1943,-0.1861,-0.1779,-0.1659,-0.1609,-0.1903,-0.1902,-0.1901,0,-0.1841,-0.1844,-0.184,-0.1873,-0.1879,-0.1882,-0.1897,-0.1905,-0.1913,-0.1944,-0.1935,-0.1954,-0.1895,-0.1907,-0.1844,-0.1882,-0.1866,-0.1859,-0.1859,-0.1789,-0.1841,-0.1694,-0.1585,-0.1889,-0.189,-0.1891,-0.1892,0,-0.1796,-0.1818,-0.1811,-0.1818,-0.1851,-0.186,-0.1877,-0.1902,-0.1918,-0.1939,-0.197,-0.193,-0.1922,-0.1886,-0.1844,-0.1873,-0.1786,-0.1833,-0.1722,-0.1718,-0.1619,-0.1607,-0.1759,-0.1759,-0.1759,-0.176,-0.176,0,-0.1755,-0.1758,-0.1795,-0.1791,-0.1806,-0.1846,-0.187,-0.1895,-0.1929,-0.1929,-0.196,-0.1939,-0.1922,-0.1878,-0.1843,-0.1737,-0.1779,-0.1673,-0.1683,-0.1594,-0.1581,-0.1835,-0.1844,-0.1758,-0.1759,-0.1759,-0.1759,0,-0.1703,-0.1722,-0.1728,-0.1767,-0.1782,-0.1795,-0.1857,-0.1876,-0.1927,-0.1925,-0.1932,-0.1942,-0.1881,-0.1843,-0.1785,-0.1724,-0.1652,-0.1603,-0.1492,-0.1486,-0.1602,-0.1608,-0.1488,-0.1484,-0.1481,-0.1478,-0.1476,0,-0.1672,-0.1665,-0.17,-0.1705,-0.1721,-0.1755,-0.1776,-0.1849,-0.1864,-0.1895,-0.1874,-0.1851,-0.177,-0.1658,-0.1564,-0.1467,-0.1544,-0.1315,-0.1308,-0.1541,-0.1564,-0.1576,-0.1587,-0.1169,-0.1164,-0.1161,-0.1158,0,-0.1609,-0.1622,-0.1624,-0.1631,-0.165,-0.1679,-0.1711,-0.1714,-0.1772,-0.1779,-0.1733,-0.168,-0.1573,-0.1401,-0.1296,-0.1231,-0.1325,-0.1234,-0.1493,-0.1249,-0.1234,-0.126,-0.1282,-0.1124,-0.1127,-0.113,-0.1132,-0.1133,-0.1553,-0.154,-0.1535,-0.1537,-0.1563,-0.1552,-0.1505,-0.1559,-0.1546,-0.1501,-0.1541,-0.1421,-0.1364,-0.1118,-0.1027,-0.0969,-0.1067,-0.1031,-0.1045,-0.1063,-0.1024,-0.1003,-0.0844,-0.0845,-0.0847,-0.0848,-0.0849,0,-0.1452,-0.1439,-0.1439,-0.1419,-0.1393,-0.1445,-0.1414,-0.1341,-0.1265,-0.13,-0.1253,-0.1051,-0.0926,-0.0881,-0.0724,-0.0682,-0.0705,-0.0664,-0.0706,-0.0738,-0.0766,-0.0716,-0.0452,-0.0451,-0.045,-0.0449,0,0,-0.1388,-0.1336,-0.133,-0.1236,-0.1226,-0.1095,-0.1028,-0.098,-0.095,-0.0877,-0.0838,-0.0902,-0.0856,-0.0668,-0.0609,-0.0507,-0.0628,-0.0478,-0.0793,-0.0875,-0.0903,-0.0967,-0.0923,0,0,0,0,0]},{"header":{"parameterUnit":"m.s-1","parameterCategory":2,"la1":30.2991,"la2":30.254,"lo1":-89.0895,"lo2":-89.0444,"dy":0.0017,"dx":0.0017,"nx":28,"ny":28,"refTime":"2025-08-17T03:00:00:Z","depth":"2","parameterNumber":3,"parameterNumberName":"V-component_of_CURRENTS"},"data":[0,0,0,0,0,0,0,0,0,0,0,0,0,0,0,0,0,0,0,0,0,0,0,0,0,0,0,0,0,0,0,0,0,0,0,0,0,0,0,0,0,0,0,0,0,0,0,0,0,0,0,0,0,0,0,0,0,0,-0.0403,-0.0402,0,-0.0302,-0.0301,-0.0299,-0.0242,-0.0242,-0.0242,-0.0242,-0.0066,-0.0061,-0.0057,0,0,0,0,0,0,0,0,0,0,0,0,0,-0.0462,-0.0462,-0.0403,-0.0402,-0.0401,-0.0302,-0.0301,-0.0299,-0.0242,-0.0242,-0.0242,-0.0242,-0.0067,-0.0062,-0.0056,0,0,0,0,0,0,0,0,0,0,0,0,0,-0.0404,-0.0462,-0.0403,-0.0363,-0.0358,-0.0303,-0.0301,-0.0299,-0.0242,-0.0242,-0.0242,-0.0242,-0.0069,-0.0062,-0.0055,-0.001,0,0,-0.0034,-0.0031,0,0,0,0,0,0,0,0,-0.0408,-0.0402,-0.037,-0.0365,-0.036,-0.0287,-0.0257,-0.0199,-0.0242,-0.0283,-0.0242,-0.0242,-0.0134,-0.0122,-0.01,-0.0002,0.0006,-0.0033,-0.0029,-0.0026,-0.0024,0,0,0,0,0,0,0,-0.0412,-0.0405,-0.036,-0.0369,-0.0363,-0.0321,-0.0313,-0.0246,-0.0206,-0.0279,-0.0276,-0.0269,-0.0131,-0.0107,-0.0095,0.0008,-0.0033,-0.0027,-0.0023,-0.002,0.0218,0.022,0,0,0,0,0,0,-0.0434,-0.041,-0.0364,-0.0358,-0.0388,-0.032,-0.0311,-0.0308,-0.0208,-0.0195,-0.0269,-0.0267,-0.0119,-0.0104,-0.0089,-0.0026,-0.0026,-0.0019,-0.0015,0.0216,0.0218,0.022,0,0,0,0,0,0,-0.0436,-0.0431,-0.0368,-0.0383,-0.0373,-0.032,-0.0316,-0.0306,-0.0284,-0.0202,-0.0186,-0.0257,-0.0119,-0.0099,-0.0037,-0.0019,-0.0016,-0.0009,0.0213,0.0217,0.0219,0.0098,0,0,0,0,0,0,-0.0438,-0.0433,-0.0435,-0.0385,-0.0373,-0.0341,-0.0316,-0.0304,-0.028,-0.0276,-0.0186,-0.017,-0.0117,-0.0048,-0.003,-0.0009,-0.0004,0.0211,0.0215,0.0218,0.0099,0.0097,0.0094,0,0,0,0,0,-0.0441,-0.0439,-0.0436,-0.043,-0.0379,-0.0342,-0.0331,-0.0291,-0.028,-0.0271,-0.0215,-0.0173,-0.0009,-0.0042,-0.0021,0.0002,0.0209,0.0214,0.0218,0.0101,0.0097,0.0094,0,0,0,0,0,0,-0.046,-0.0432,-0.0428,-0.0417,-0.0389,-0.0333,-0.0319,-0.0296,-0.0244,-0.0239,-0.0166,-0.0145,-0.0084,-0.0013,-0.0051,0.0091,0.0116,0.0125,0.002,0.0017,0.0015,-0.0014,0.0002,0,0,0,0,0,-0.047,-0.0465,-0.0432,-0.0424,-0.0415,-0.0371,-0.035,-0.0326,-0.0277,-0.0255,-0.0191,-0.011,-0.0045,0.0002,0.0071,0.0142,0.0178,0.0184,0.0181,0.0178,0.0175,0.0214,0.0212,0.0236,0.0236,0.0236,0,0,-0.0477,-0.046,-0.0458,-0.0429,-0.0403,-0.0384,-0.0357,-0.0331,-0.0307,-0.0241,-0.0184,-0.013,-0.0031,0.0037,0.0077,0.0098,0.0195,0.0184,0.0179,0.0179,0.0218,0.0215,0.0213,0.0239,0.0238,0.0238,0,0,-0.0485,-0.0474,-0.0475,-0.0452,-0.0423,-0.0394,-0.0393,-0.0341,-0.0313,-0.0257,-0.0207,-0.016,-0.0028,0.0021,0.0069,0.0101,0.0164,0.0158,0.0132,0.0168,0.0165,0.0162,0.0199,0.0201,0.0171,0.0171,0.0171,0,-0.0496,-0.0489,-0.0467,-0.0457,-0.044,-0.0405,-0.0396,-0.0358,-0.029,-0.0267,-0.0246,-0.0102,-0.0042,0.0027,0.004,0.0087,0.013,0.0119,0.0156,0.0155,0.0154,0.0194,0.0197,0.0166,0.0166,0.0167,0.0168,0,-0.0501,-0.0494,-0.0489,-0.047,-0.0449,-0.0433,-0.0391,-0.0363,-0.0325,-0.0285,-0.0219,-0.0148,-0.0063,-0.0027,0.0016,0.0062,0.0099,0.0124,0.0141,0.0143,0.0187,0.0192,0.0158,0.016,0.0162,0.0163,0,0,-0.0532,-0.0503,-0.0501,-0.0498,-0.0455,-0.0441,-0.0406,-0.0367,-0.0348,-0.028,-0.0245,-0.0157,-0.013,-0.0073,-0.0016,0.0022,0.0036,0.0076,0.0081,0.0072,0.0129,0.0153,0.0161,0.0069,0.0069,0.007,0.0157,0,-0.0545,-0.0537,-0.0513,-0.0502,-0.0496,-0.0456,-0.0428,-0.0388,-0.034,-0.0294,-0.0233,-0.0178,-0.0139,-0.0109,-0.0069,0.0014,0.0049,0.0011,0.0167,0.0171,0.0157,0.0167,0.0165,0.0243,0.0163,0.0164,0.0164,0,-0.056,-0.0552,-0.0548,-0.0526,-0.0521,-0.0509,-0.0472,-0.0442,-0.0376,-0.0336,-0.0282,-0.0225,-0.0163,-0.0135,-0.0015,-0.0033,0.0037,0.0095,0.0101,0.0168,0.0205,0.0237,0.0257,0.0174,0.0173,0.0173,0.0172,0,-0.0596,-0.0577,-0.0578,-0.0567,-0.0534,-0.053,-0.0513,-0.0459,-0.0437,-0.0371,-0.0343,-0.0259,-0.0208,-0.012,0.0001,-0.0,0.0136,0.0147,0.0231,0.0234,0.0286,0.0292,0.0218,0.0218,0.0217,0.0217,0.0217,0,-0.0615,-0.0617,-0.0599,-0.0599,-0.061,-0.0571,-0.0571,-0.0538,-0.0485,-0.0451,-0.0378,-0.0322,-0.0199,-0.01,-0.0004,0.0136,0.0132,0.0226,0.0258,0.0248,0.0249,0.0238,0.0239,0.022,0.022,0.0219,0.0218,0,-0.0654,-0.0636,-0.0645,-0.0628,-0.0629,-0.064,-0.0623,-0.0618,-0.0559,-0.0511,-0.0493,-0.0362,-0.0225,-0.0102,0.0059,0.0135,0.0256,0.0305,0.0285,0.0312,0.033,0.0325,0.0401,0.0403,0.0404,0.0405,0.0406,0,-0.0675,-0.0681,-0.0684,-0.0704,-0.0702,-0.0712,-0.072,-0.0667,-0.0645,-0.0521,-0.0494,-0.0353,-0.0227,0.0007,0.016,0.0323,0.0313,0.0404,0.0387,0.0325,0.0349,0.0342,0.0335,0.0414,0.0415,0.0416,0.0416,0,-0.0719,-0.072,-0.073,-0.0772,-0.0792,-0.0803,-0.0796,-0.0777,-0.0691,-0.0625,-0.0484,-0.0372,-0.013,0.0072,0.0269,0.036,0.0372,0.0424,0.038,0.036,0.0343,0.0364,0.0356,0.0423,0.0422,0.0422,0.0421,0.0421,-0.0759,-0.0785,-0.0804,-0.0841,-0.0872,-0.0873,-0.0859,-0.0822,-0.0759,-0.0617,-0.0498,-0.0307,-0.011,0.0187,0.0333,0.046,0.0456,0.0484,0.048,0.0475,0.0453,0.0438,0.0533,0.0533,0.0533,0.0533,0.0533,0,-0.0795,-0.0823,-0.0873,-0.0905,-0.0943,-0.0934,-0.0896,-0.0844,-0.0752,-0.061,-0.0466,-0.0225,-0.0004,0.0192,0.0413,0.0535,0.0517,0.0543,0.05,0.0494,0.0489,0.0465,0.0549,0.0549,0.0549,0.0549,0,0,-0.0815,-0.0863,-0.0887,-0.0954,-0.0978,-0.0951,-0.0913,-0.0829,-0.0708,-0.0536,-0.039,-0.0238,0.0024,0.0167,0.0333,0.0455,0.0434,0.0458,0.0437,0.0364,0.0356,0.0454,0.0412,0,0,0,0,0]}],[{"header":{"parameterUnit":"m.s-1","parameterCategory":2,"la1":30.2991,"la2":30.254,"lo1":-89.0895,"lo2":-89.0444,"dy":0.0017,"dx":0.0017,"nx":28,"ny":28,"refTime":"2025-08-17T03:00:00:Z","depth":"4","parameterNumber":2,"parameterNumberName":"U-component_of_CURRENTS"},"data":[0,0,0,0,0,0,0,0,0,0,0,0,0,0,0,0,0,0,0,0,0,0,0,0,0,0,0,0,0,0,0,0,0,0,0,0,0,0,0,0,0,0,0,0,0,0,0,0,0,0,0,0,0,0,0,0,0,0,-0.1167,-0.1167,0,-0.118,-0.118,-0.118,-0.1176,-0.1176,-0.1176,-0.1176,-0.1221,-0.1222,-0.1223,0,0,0,0,0,0,0,0,0,0,0,0,0,-0.1171,-0.1171,-0.1167,-0.1167,-0.1168,-0.118,-0.118,-0.118,-0.1176,-0.1176,-0.1176,-0.1176,-0.122,-0.1222,-0.1223,0,0,0,0,0,0,0,0,0,0,0,0,0,-0.1172,-0.1171,-0.1167,-0.117,-0.117,-0.118,-0.118,-0.118,-0.1176,-0.1176,-0.1176,-0.1176,-0.122,-0.1222,-0.1223,-0.1232,0,0,-0.1229,-0.1229,0,0,0,0,0,0,0,0,-0.1172,-0.1171,-0.1169,-0.117,-0.117,-0.118,-0.1199,-0.12,-0.1176,-0.117,-0.1176,-0.1176,-0.1212,-0.1215,-0.1211,-0.1235,-0.1236,-0.1229,-0.123,-0.123,-0.1231,0,0,0,0,0,0,0,-0.1172,-0.1171,-0.1168,-0.1169,-0.117,-0.1183,-0.1182,-0.1199,-0.1188,-0.117,-0.1171,-0.1178,-0.1212,-0.121,-0.1212,-0.1237,-0.1229,-0.123,-0.1231,-0.1232,-0.1303,-0.1304,0,0,0,0,0,0,-0.1176,-0.1171,-0.1168,-0.1169,-0.1176,-0.1183,-0.1182,-0.1174,-0.1187,-0.119,-0.1178,-0.1178,-0.1207,-0.121,-0.1214,-0.1251,-0.123,-0.1232,-0.1233,-0.1302,-0.1303,-0.1304,0,0,0,0,0,0,-0.1175,-0.1174,-0.1167,-0.1174,-0.1175,-0.1183,-0.1173,-0.1174,-0.1189,-0.1194,-0.1197,-0.1195,-0.1207,-0.1212,-0.124,-0.1252,-0.1233,-0.1234,-0.1301,-0.1302,-0.1303,-0.1309,0,0,0,0,0,0,-0.1175,-0.1174,-0.1182,-0.1174,-0.1175,-0.1181,-0.1174,-0.1174,-0.1194,-0.1194,-0.1209,-0.1212,-0.1207,-0.1238,-0.1242,-0.1254,-0.1236,-0.13,-0.1302,-0.1303,-0.1308,-0.131,-0.1312,0,0,0,0,0,-0.1175,-0.1181,-0.1182,-0.1183,-0.118,-0.1182,-0.1183,-0.1187,-0.1195,-0.1201,-0.1213,-0.1213,-0.1251,-0.124,-0.1245,-0.1257,-0.1299,-0.1301,-0.1303,-0.1306,-0.131,-0.1312,0,0,0,0,0,0,-0.119,-0.1182,-0.1182,-0.1186,-0.119,-0.1183,-0.1198,-0.1201,-0.1214,-0.1222,-0.1225,-0.1228,-0.1254,-0.1262,-0.1249,-0.1284,-0.1275,-0.1278,-0.1276,-0.1279,-0.1281,-0.1291,-0.1237,0,0,0,0,0,-0.1197,-0.1199,-0.1193,-0.1201,-0.1204,-0.1206,-0.1214,-0.1213,-0.1221,-0.1227,-0.1243,-0.1258,-0.1263,-0.1277,-0.1284,-0.1311,-0.1312,-0.1323,-0.1325,-0.1327,-0.1339,-0.1353,-0.1358,-0.131,-0.131,-0.131,0,0,-0.1208,-0.1205,-0.1207,-0.1205,-0.1209,-0.1212,-0.121,-0.1223,-0.1231,-0.1232,-0.1264,-0.1269,-0.1271,-0.1289,-0.1302,-0.13,-0.1338,-0.1329,-0.1331,-0.1343,-0.1356,-0.136,-0.1364,-0.1311,-0.1311,-0.1311,0,0,-0.1222,-0.1224,-0.1228,-0.1229,-0.1238,-0.1235,-0.1244,-0.1251,-0.1262,-0.1282,-0.1283,-0.1301,-0.132,-0.1323,-0.1323,-0.1351,-0.1347,-0.1355,-0.138,-0.1393,-0.1397,-0.14,-0.139,-0.1392,-0.1361,-0.1361,-0.1361,0,-0.1241,-0.1236,-0.1233,-0.1235,-0.1247,-0.1247,-0.1258,-0.1261,-0.1281,-0.1301,-0.1296,-0.1332,-0.1332,-0.1353,-0.1354,-0.1356,-0.1357,-0.1364,-0.1395,-0.1399,-0.1402,-0.1391,-0.1394,-0.1361,-0.1361,-0.1361,-0.1361,0,-0.1244,-0.1253,-0.1258,-0.1257,-0.1268,-0.1279,-0.1282,-0.1304,-0.132,-0.1325,-0.1361,-0.1362,-0.1387,-0.1383,-0.1372,-0.1403,-0.1391,-0.139,-0.1384,-0.1407,-0.1394,-0.1396,-0.1362,-0.1362,-0.1362,-0.1361,0,0,-0.1251,-0.1261,-0.1265,-0.1277,-0.1284,-0.1292,-0.1315,-0.1337,-0.1364,-0.1377,-0.1412,-0.1416,-0.1429,-0.1432,-0.143,-0.1439,-0.1447,-0.1428,-0.1429,-0.1412,-0.1462,-0.1336,-0.1326,-0.1452,-0.1453,-0.1454,-0.1435,0,-0.126,-0.1275,-0.1279,-0.1304,-0.1313,-0.133,-0.1354,-0.1375,-0.1393,-0.1425,-0.1431,-0.1454,-0.1442,-0.1456,-0.1464,-0.1452,-0.1459,-0.1451,-0.1449,-0.1449,-0.1329,-0.1327,-0.1457,-0.1437,-0.1438,-0.1438,-0.1439,0,-0.1251,-0.1268,-0.1296,-0.1336,-0.1345,-0.1365,-0.1416,-0.1436,-0.1468,-0.1484,-0.151,-0.1511,-0.1526,-0.151,-0.1512,-0.1509,-0.1494,-0.1479,-0.1478,-0.1365,-0.1328,-0.1416,-0.1443,-0.1443,-0.1443,-0.1442,-0.1442,0,-0.1242,-0.1278,-0.1309,-0.1319,-0.136,-0.1395,-0.1423,-0.1462,-0.1484,-0.1526,-0.1535,-0.1562,-0.1559,-0.1563,-0.152,-0.1527,-0.1505,-0.151,-0.1385,-0.1376,-0.1494,-0.1491,-0.1522,-0.1522,-0.1522,-0.1522,-0.1522,0,-0.1228,-0.1256,-0.1315,-0.1326,-0.1378,-0.1409,-0.1461,-0.1493,-0.1531,-0.1531,-0.1568,-0.1553,-0.1572,-0.155,-0.1534,-0.1446,-0.1517,-0.1385,-0.1363,-0.1494,-0.1491,-0.1494,-0.1491,-0.1522,-0.1522,-0.1522,-0.1522,0,-0.1194,-0.1233,-0.1273,-0.1342,-0.1368,-0.1404,-0.1467,-0.1488,-0.1537,-0.1534,-0.1543,-0.1548,-0.15,-0.1499,-0.1479,-0.1431,-0.1387,-0.1345,-0.1465,-0.1451,-0.125,-0.1248,-0.1211,-0.1207,-0.1203,-0.12,-0.1197,0,-0.1173,-0.1191,-0.1275,-0.1298,-0.1332,-0.1391,-0.1415,-0.148,-0.1479,-0.1498,-0.1469,-0.1452,-0.1433,-0.13,-0.1324,-0.1282,-0.1269,-0.1252,-0.127,-0.1236,-0.122,-0.1223,-0.1226,-0.1191,-0.119,-0.1189,-0.1188,0,-0.1136,-0.1177,-0.1207,-0.125,-0.1289,-0.1317,-0.135,-0.134,-0.1376,-0.1444,-0.1345,-0.1302,-0.1236,-0.12,-0.1166,-0.1144,-0.1269,-0.1211,-0.122,-0.1237,-0.1211,-0.1199,-0.1206,-0.1174,-0.1176,-0.1177,-0.1178,0,-0.1107,-0.1119,-0.1155,-0.1179,-0.1223,-0.1197,-0.1237,-0.1208,-0.1216,-0.1236,-0.1196,-0.1175,-0.1199,-0.1125,-0.1096,-0.1056,-0.1049,-0.1035,-0.1053,-0.1068,-0.1028,-0.0974,-0.084,0,0,0,0,0,-0.1065,-0.1052,-0.1073,-0.1073,-0.1106,-0.1114,-0.1159,-0.1191,-0.123,-0.1124,-0.1154,-0.1082,-0.1008,-0.1012,-0.0938,-0.104,-0.1063,-0.0953,-0.106,-0.1099,-0.1115,-0.1081,0,0,0,0,0,0,-0.1028,-0.1045,-0.1037,-0.0969,-0.094,-0.0945,-0.0962,-0.0992,-0.0941,-0.0994,-0.0958,-0.1012,-0.0961,-0.1016,-0.0908,-0.0912,-0.0957,-0.0964,-0.0961,-0.1091,-0.1105,-0.1117,-0.1088,0,0,0,0,0]},{"header":{"parameterUnit":"m.s-1","parameterCategory":2,"la1":30.2991,"la2":30.254,"lo1":-89.0895,"lo2":-89.0444,"dy":0.0017,"dx":0.0017,"nx":28,"ny":28,"refTime":"2025-08-17T03:00:00:Z","depth":"4","parameterNumber":3,"parameterNumberName":"V-component_of_CURRENTS"},"data":[0,0,0,0,0,0,0,0,0,0,0,0,0,0,0,0,0,0,0,0,0,0,0,0,0,0,0,0,0,0,0,0,0,0,0,0,0,0,0,0,0,0,0,0,0,0,0,0,0,0,0,0,0,0,0,0,0,0,-0.0345,-0.0345,0,-0.0334,-0.0334,-0.0334,-0.0336,-0.0337,-0.0337,-0.0337,-0.0313,-0.0312,-0.0312,0,0,0,0,0,0,0,0,0,0,0,0,0,-0.0345,-0.0345,-0.0345,-0.0345,-0.0345,-0.0334,-0.0334,-0.0334,-0.0336,-0.0337,-0.0337,-0.0337,-0.0313,-0.0313,-0.0312,0,0,0,0,0,0,0,0,0,0,0,0,0,-0.0341,-0.0345,-0.0345,-0.0344,-0.0343,-0.0334,-0.0334,-0.0334,-0.0336,-0.0337,-0.0337,-0.0337,-0.0314,-0.0313,-0.0312,-0.0301,0,0,-0.0308,-0.0308,0,0,0,0,0,0,0,0,-0.0342,-0.0342,-0.0344,-0.0344,-0.0343,-0.0336,-0.0325,-0.0322,-0.0336,-0.034,-0.0337,-0.0337,-0.0319,-0.0317,-0.0316,-0.03,-0.0299,-0.0308,-0.0307,-0.0307,-0.0307,0,0,0,0,0,0,0,-0.0342,-0.0342,-0.0342,-0.0344,-0.0343,-0.0336,-0.0336,-0.0324,-0.0329,-0.034,-0.034,-0.0337,-0.0319,-0.0318,-0.0316,-0.0299,-0.0308,-0.0307,-0.0306,-0.0306,-0.0277,-0.0277,0,0,0,0,0,0,-0.0342,-0.0342,-0.0342,-0.0341,-0.0342,-0.0335,-0.0336,-0.0339,-0.033,-0.0328,-0.0337,-0.0337,-0.0319,-0.0317,-0.0315,-0.0308,-0.0307,-0.0306,-0.0305,-0.0277,-0.0277,-0.0277,0,0,0,0,0,0,-0.0342,-0.0343,-0.0342,-0.034,-0.0339,-0.0335,-0.0339,-0.0339,-0.0342,-0.0327,-0.0326,-0.0341,-0.0319,-0.0317,-0.0311,-0.0307,-0.0305,-0.0304,-0.0277,-0.0277,-0.0277,-0.0289,0,0,0,0,0,0,-0.0343,-0.0343,-0.0349,-0.034,-0.034,-0.0343,-0.0339,-0.0338,-0.0339,-0.034,-0.033,-0.0328,-0.0319,-0.0312,-0.031,-0.0305,-0.0303,-0.0277,-0.0277,-0.0277,-0.0289,-0.029,-0.029,0,0,0,0,0,-0.0343,-0.0346,-0.035,-0.035,-0.0348,-0.0343,-0.0342,-0.034,-0.0339,-0.0344,-0.0336,-0.0329,-0.0309,-0.0312,-0.0308,-0.0303,-0.0277,-0.0277,-0.0277,-0.0289,-0.029,-0.029,0,0,0,0,0,0,-0.0348,-0.0346,-0.035,-0.0354,-0.0353,-0.0343,-0.0346,-0.0343,-0.0341,-0.0344,-0.0329,-0.0326,-0.0322,-0.031,-0.0313,-0.0294,-0.0291,-0.029,-0.0301,-0.0302,-0.0302,-0.029,-0.0303,0,0,0,0,0,-0.0353,-0.0357,-0.0354,-0.0358,-0.0359,-0.0354,-0.0353,-0.0354,-0.0347,-0.0347,-0.0336,-0.0325,-0.0317,-0.0308,-0.0302,-0.0289,-0.0258,-0.0283,-0.0283,-0.0284,-0.0272,-0.0214,-0.0208,-0.0276,-0.0276,-0.0276,0,0,-0.0357,-0.0355,-0.0359,-0.0359,-0.036,-0.0359,-0.0355,-0.0358,-0.0355,-0.0344,-0.0337,-0.0331,-0.0316,-0.0306,-0.0302,-0.0296,-0.0252,-0.0283,-0.0284,-0.0271,-0.0213,-0.0206,-0.02,-0.0276,-0.0276,-0.0276,0,0,-0.0361,-0.0366,-0.0372,-0.037,-0.0372,-0.0369,-0.0371,-0.0365,-0.0363,-0.036,-0.0349,-0.0334,-0.0326,-0.0304,-0.0294,-0.029,-0.0262,-0.0295,-0.028,-0.0225,-0.0219,-0.0212,-0.0179,-0.017,-0.0288,-0.0288,-0.0288,0,-0.0368,-0.0372,-0.0372,-0.0373,-0.037,-0.0373,-0.0374,-0.0371,-0.0362,-0.035,-0.0362,-0.0326,-0.032,-0.0285,-0.029,-0.0289,-0.0262,-0.0281,-0.0224,-0.0217,-0.0211,-0.0178,-0.0168,-0.0289,-0.0289,-0.0289,-0.0289,0,-0.0374,-0.0378,-0.0379,-0.0382,-0.0379,-0.0383,-0.0376,-0.0372,-0.0372,-0.036,-0.0337,-0.0324,-0.0295,-0.0296,-0.0296,-0.0245,-0.0243,-0.0237,-0.0221,-0.0204,-0.0172,-0.0161,-0.029,-0.0289,-0.0289,-0.0289,0,0,-0.0391,-0.0386,-0.0388,-0.0389,-0.0385,-0.0385,-0.0375,-0.0361,-0.0347,-0.0339,-0.0309,-0.0295,-0.028,-0.0267,-0.0255,-0.0211,-0.0155,-0.0207,-0.0204,-0.0171,-0.0045,-0.0062,-0.0051,-0.0137,-0.0135,-0.0133,-0.0046,0,-0.04,-0.0404,-0.0395,-0.0397,-0.0399,-0.0387,-0.0376,-0.0361,-0.0347,-0.0319,-0.029,-0.0269,-0.027,-0.026,-0.0214,-0.0177,-0.0124,-0.018,-0.0067,-0.0064,-0.0078,-0.0038,-0.0126,-0.0037,-0.0035,-0.0033,-0.0032,0,-0.0413,-0.0412,-0.0417,-0.0402,-0.0402,-0.0403,-0.0379,-0.0369,-0.0326,-0.031,-0.0269,-0.0248,-0.0194,-0.0198,-0.0097,-0.0134,-0.0084,-0.005,-0.0045,-0.0044,-0.0059,-0.0053,-0.0011,-0.0013,-0.0014,-0.0015,-0.0017,0,-0.043,-0.0425,-0.0431,-0.0428,-0.0414,-0.0411,-0.0405,-0.0369,-0.0354,-0.0302,-0.0283,-0.0212,-0.0188,-0.0107,-0.0054,-0.0066,0.0057,0.0053,0.0094,0.0093,0.0086,0.0079,0.0155,0.0155,0.0155,0.0155,0.0155,0,-0.0439,-0.0444,-0.0444,-0.0448,-0.0455,-0.0433,-0.0428,-0.0405,-0.0361,-0.0339,-0.0284,-0.0249,-0.0163,-0.0093,-0.0032,0.0057,0.0082,0.0113,0.0126,0.0074,0.0065,0.0093,0.0084,0.0158,0.0157,0.0157,0.0156,0,-0.0456,-0.0455,-0.0466,-0.0463,-0.0467,-0.0475,-0.0462,-0.0451,-0.0405,-0.037,-0.0355,-0.0269,-0.0179,-0.0092,0.0033,0.0076,0.0167,0.0199,0.0128,0.0133,0.0161,0.0151,0.0264,0.0265,0.0265,0.0265,0.0266,0,-0.0465,-0.0474,-0.0492,-0.0511,-0.0516,-0.0524,-0.0529,-0.0486,-0.0466,-0.0385,-0.0367,-0.0271,-0.0211,-0.0049,0.0043,0.018,0.0194,0.024,0.0217,0.0177,0.0178,0.0168,0.0157,0.0266,0.0266,0.0266,0.0266,0,-0.0486,-0.0499,-0.0511,-0.0552,-0.0573,-0.0578,-0.0576,-0.0559,-0.0499,-0.046,-0.0367,-0.0272,-0.0167,-0.0048,0.0057,0.0152,0.0207,0.0244,0.0244,0.0223,0.0181,0.0179,0.0168,0.0268,0.0267,0.0267,0.0267,0,-0.0511,-0.0531,-0.056,-0.0587,-0.0621,-0.0625,-0.0612,-0.0573,-0.0537,-0.0436,-0.0409,-0.0283,-0.0205,-0.0061,0.0035,0.0126,0.0149,0.017,0.0174,0.0174,0.0114,0.0045,0.0119,0,0,0,0,0,-0.053,-0.0556,-0.0593,-0.0619,-0.065,-0.0659,-0.0641,-0.0613,-0.0554,-0.0495,-0.0443,-0.0341,-0.0175,-0.0099,-0.0009,0.0031,0.0153,0.0138,0.0175,0.0274,0.0273,0.0215,0,0,0,0,0,0,-0.0546,-0.0587,-0.0599,-0.0641,-0.0663,-0.0681,-0.0669,-0.0622,-0.0572,-0.0505,-0.0416,-0.0339,-0.0182,-0.0238,-0.0018,0.0014,0.0046,0.0225,0.0226,0.0275,0.0273,0.0272,0.0213,0,0,0,0,0]}]]